This demonstration page uses our WeatherBlox Daily Observations layout. Learn more.

Left ArrowRight Arrow

40.92945, -100.16068

Hourly Observations for March 21, 2021

Temp ( °F °C ) Dew Point ( °F °C ) Humidity (%) Winds ( mph kmh ) Pressure ( in mb ) Visibility ( mi km ) Precip ( " mm )
12:15 am 00:15 Clear 50 10.1 39 4 66 66 SSE 23 37 29.83 1010 10 16 N/A
12:35 am 00:35 Clear 50 10 39 4 67 67 SSE 21 33 29.81 1010 10 16 N/A
12:55 am 00:55 Clear 51 10.5 39 4 64 64 SSE 28 44 29.79 1009 10 16 N/A
1:15 am 01:15 Clear 51 10.6 39 3.9 64 64 SSE 30 48 29.78 1008 10 16 N/A
1:35 am 01:35 Clear 52 10.9 39 3.7 61 61 S 30 48 29.76 1008 10 16 N/A
1:55 am 01:55 Clear 51 10.7 39 3.7 62 62 S 31 50 29.76 1008 10 16 N/A
2:15 am 02:15 Clear 52 11.1 38 3.5 60 60 S 32 52 29.75 1007 10 16 N/A
2:35 am 02:35 Clear 51 10.7 38 3.5 61 61 S 25 41 29.75 1008 10 16 N/A
2:55 am 02:55 Clear 51 10.6 38 3.5 62 62 S 20 31 29.76 1008 10 16 N/A
3:15 am 03:15 Clear 51 10.7 38 3.4 61 61 S 21 33 29.75 1008 10 16 N/A
3:35 am 03:35 Clear 51 10.6 38 3.5 62 62 S 20 31 29.76 1008 10 16 N/A
3:55 am 03:55 Clear 51 10.3 38 3.3 62 62 SSE 14 22 29.76 1008 10 16 N/A
4:15 am 04:15 Clear 51 10.4 38 3.2 61 61 SSE 15 24 29.75 1007 10 16 N/A
4:35 am 04:35 Clear 51 10.4 38 3.2 61 61 SSE 12 19 29.74 1007 10 16 N/A
4:55 am 04:55 Clear 51 10.3 38 3.1 61 61 SSE 10 17 29.74 1007 10 16 N/A
5:15 am 05:15 Clear 51 10.8 37 3 59 59 SSE 15 24 29.73 1007 10 16 N/A
5:35 am 05:35 Clear 51 10.5 37 3 60 60 S 13 20 29.74 1007 10 16 N/A
5:55 am 05:55 Clear 51 10.4 37 3 60 60 S 12 19 29.75 1007 10 16 N/A
6:15 am 06:15 Clear 50 10.1 37 3 62 62 SSW 32 52 29.71 1006 10 16 N/A
6:35 am 06:35 Clear 50 9.9 38 3.1 63 63 SSW 22 35 29.74 1007 10 16 N/A
6:55 am 06:55 Clear 49 9.5 37 3 64 64 S 21 33 29.75 1007 10 16 N/A
7:15 am 07:15 Clear 48 9 38 3.1 67 67 S 17 28 29.75 1007 10 16 N/A
7:35 am 07:35 Clear 48 8.8 38 3.1 68 68 S 18 30 29.76 1008 10 16 N/A
7:55 am 07:55 Sunny 47 8.5 37 3 69 69 SSW 15 24 29.77 1008 10 16 N/A
8:15 am 08:15 Sunny 47 8.5 38 3.1 69 69 SSW 10 17 29.78 1009 10 16 N/A
8:35 am 08:35 Sunny 47 8.5 38 3.2 70 70 SW 10 17 29.80 1009 7 11 N/A
8:55 am 08:55 Sunny 47 8.2 38 3.2 71 71 W 16 26 29.83 1010 10 16 N/A
9:15 am 09:15 Sunny 46 7.5 36 2.2 69 69 NNW 21 33 29.84 1011 10 16 N/A
9:35 am 09:35 Sunny 45 7.2 33 0.6 63 63 NNW 20 31 29.86 1011 10 16 N/A
9:55 am 09:55 Sunny 45 7.4 33 0.3 61 61 NNW 21 33 29.86 1011 10 16 N/A
10:15 am 10:15 Sunny 46 7.5 32 0.1 60 60 NNW 20 31 29.86 1011 10 16 N/A
10:35 am 10:35 Sunny 47 8.2 33 0.7 60 60 N 20 31 29.87 1011 10 16 N/A
10:55 am 10:55 Sunny 47 8.3 33 0.8 60 60 NNW 14 22 29.87 1011 10 16 N/A
11:15 am 11:15 Sunny 48 9 35 1.4 59 59 NNW 20 31 29.89 1012 10 16 N/A
11:35 am 11:35 Sunny 49 9.6 35 1.8 59 59 NW 16 26 29.88 1012 10 16 N/A
11:55 am 11:55 Sunny 50 10.1 35 1.8 57 57 NW 18 30 29.89 1012 10 16 N/A
12:15 pm 12:15 Sunny 51 10.8 36 2.3 56 56 NNW 21 33 29.87 1012 10 16 N/A
12:35 pm 12:35 Sunny 52 11.3 36 2.4 55 55 NW 20 31 29.87 1011 10 16 N/A
12:55 pm 12:55 Sunny 53 11.9 37 2.8 54 54 NNW 17 28 29.87 1012 10 16 N/A
1:15 pm 13:15 Sunny 54 12.1 36 2.4 52 52 NNW 21 33 29.87 1012 10 16 N/A
1:35 pm 13:35 Sunny 55 12.5 37 2.7 52 52 NNW 14 22 29.88 1012 10 16 N/A
1:55 pm 13:55 Partly Cloudy 55 12.6 37 2.5 50 50 N 17 28 29.87 1011 10 16 N/A
2:15 pm 14:15 Sunny 56 13.1 37 2.7 50 50 N 17 28 29.86 1011 10 16 N/A
2:35 pm 14:35 Partly Cloudy 56 13.6 37 2.9 49 49 N 15 24 29.87 1011 10 16 N/A
2:55 pm 14:55 Sunny 58 14.4 37 2.9 46 46 NNW 16 26 29.85 1011 10 16 N/A
3:15 pm 15:15 Mostly Cloudy 57 13.7 37 2.9 48 48 NNW 17 28 29.87 1011 10 16 N/A
3:35 pm 15:35 Mostly Cloudy 56 13.1 36 2.2 48 48 NNW 16 26 29.88 1012 10 16 N/A
3:55 pm 15:55 Mostly Cloudy 55 13 36 2 47 47 NNW 20 31 29.88 1012 10 16 N/A
4:15 pm 16:15 Mostly Cloudy 56 13.6 36 2.1 46 46 N 15 24 29.88 1012 10 16 N/A
4:35 pm 16:35 Mostly Cloudy 57 13.7 35 1.6 44 44 NNW 17 28 29.88 1012 10 16 N/A
4:55 pm 16:55 Mostly Cloudy 56 13.3 35 1.6 45 45 N 16 26 29.90 1013 10 16 N/A
5:15 pm 17:15 Mostly Cloudy 55 12.8 34 1.2 45 45 N 15 24 29.92 1013 10 16 N/A
5:35 pm 17:35 Partly Cloudy 55 13 35 1.4 45 45 N 12 19 29.92 1013 10 16 N/A
5:55 pm 17:55 Mostly Cloudy 55 12.5 34 1.3 47 47 N 10 17 29.93 1013 10 16 N/A
6:15 pm 18:15 Mostly Cloudy 54 12.4 34 1.3 47 47 NNE 15 24 29.93 1014 10 16 N/A
6:35 pm 18:35 Mostly Cloudy 55 12.6 34 1.3 46 46 NNE 12 19 29.94 1014 10 16 N/A
6:55 pm 18:55 Mostly Cloudy 54 12.4 35 1.4 47 47 NNE 9 15 29.94 1014 10 16 N/A
7:15 pm 19:15 Cloudy 53 11.5 35 1.7 51 51 NE 8 13 29.96 1014 10 16 N/A
7:35 pm 19:35 Mostly Cloudy 51 10.6 36 2.1 56 56 NE 6 9 29.97 1015 10 16 N/A
7:55 pm 19:55 Mostly Cloudy 50 10.2 36 2.4 59 59 NE 5 7 29.98 1015 10 16 N/A
8:15 pm 20:15 Cloudy 49 9.4 37 2.6 63 63 N 6 9 30.00 1016 10 16 N/A
8:35 pm 20:35 Cloudy 49 9.4 37 2.7 63 63 NNW 5 7 30.01 1016 10 16 N/A
8:55 pm 20:55 Mostly Cloudy 48 8.8 37 2.6 65 65 N 7 11 30.01 1016 10 16 N/A
9:15 pm 21:15 Partly Cloudy 48 9 36 2.1 62 62 N 5 7 30.02 1017 10 16 N/A
9:35 pm 21:35 Mostly Cloudy 48 9.1 36 2.1 62 62 N 7 11 30.03 1017 10 16 N/A
9:55 pm 21:55 Cloudy 47 8.6 36 2 64 64 NNE 7 11 30.03 1017 10 16 N/A
10:15 pm 22:15 Mostly Cloudy 47 8.5 35 1.5 62 62 NNE 6 9 30.03 1017 10 16 N/A
10:35 pm 22:35 Mostly Cloudy 46 8 34 1.1 62 62 NNE 7 11 30.03 1017 10 16 N/A
10:55 pm 22:55 Cloudy 45 7.3 36 2.1 70 70 NNW 7 11 30.07 1018 10 16 N/A
11:15 pm 23:15 Mostly Cloudy 46 7.8 35 1.8 66 66 N 6 9 30.06 1018 10 16 N/A
11:35 pm 23:35 Partly Cloudy 45 7.3 35 1.6 67 67 NNE 7 11 30.06 1018 10 16 N/A
11:55 pm 23:55 Mostly Cloudy 46 7.9 34 1.2 63 63 NNE 7 11 30.05 1018 10 16 N/A

Powered by AerisWeather